Volver al catálogo

YAOGAN-30 AC

ActivoMilitarVLEO
NORAD 48863·PAYLOAD·🇨🇳 China

Lanzado Jun 18, 2021 desde Xichang Satellite Launch Center

Loading…

Próximos Pases (próximas 24 horas)

TLE

ActualizadoSource: Space-Track

Época: Sep 14, 2026, 15:10 UTC

1 48863U 21055D   26257.63217759  .00001925  00000-0  14219-3 0  9991
2 48863  34.9967 326.2327 0003597 233.5986 126.4391 15.03026431286359

Sigue YAOGAN-30 AC en tiempo real con AllMySat

Download on the App Store